SCP
0 0 0 0 0 0 0 0 0 0 0 0 0 0 0 0 0 0 0 0 0 0 0 0 0 0 0 1 0 0 0 0 0 0 0 0 0 0 0 0 0 0 0 0 0 0 0
0 0 0 0 0 0 0 0 0 0 0 0 0 0 0 0 0 0 0 0 0 0 0 0 0 0 0 0 0 0 0 0 0 0 0 0 0 0 0 0 0 0 0 0 0 0 0
0 0 0 0 0 0 0 0 0 0 0 0 0 0 0 0 0 0 0 0 0 0 0 0 0 0 0 0 0 0 0 0 0 0 0 0 0 0 0 0 0 0 0 0 0 0 0
0 0 0 0 0 0 0 0 0 0 0 0 0 0 0 0 0 0 0 0 0 0 0 0 0 0 0 0 0 0 0 0 0 0 0 0 0 0 0 0 0 0 0 0 0 0 0
0 0 0 0 0 0 0 0 0 0 0 0 0 0 0 0 0 0 0 0 0 0 0 0 0 0 0 0 0 0 0 0 0 0 0 0 0 0 0 0 0 0 0 0 0 0 0
0 0 0 0 0 0 0 0 0 0 0 0 0 0 0 0 0 0 0 0 0 0 0 0 0 1 0 0 0 0 0 0 0 0 0 0 0 0 0 0 0 0 0 0 0 0 0
0 0 0 0 0 0 0 0 0 0 0 0 0 0 0 0 0 0 1 1 0 0 0 0 0 0 0 0 0 0 0 0 0 0 0 0 0 0 0 0 0 0 0 0 0 0 0
-0 0 0 0 0 0 0 0 0 0 0 0 0 0 0 0 0 0 1 1 0 0 0 0 0 0 0 0 0 0 0 1 0 0 0 0 0 0 0 0 0 0 0 0 0 0 0
0 0 0 0 0 0 0 0 0 0 0 0 0 0 0 0 0 0 0 0 0 0 0 0 0 0 0 0 0 0 0 0 0 0 0 0 0 0 0 0 0 0 0 0 0 0 0
0 0 0 0 0 0 0 0 0 0 0 0 0 0 0 0 0 0 0 0 0 0 0 0 0 0 0 0 0 0 0 0 0 0 0 0 0 0 0 0 0 0 0 0 0 0 0
0 0 0 0 0 0 -0 0 0 0 0 0 0 0 0 1 0 0 0 0 0 0 0 0 0 0 0 0 0 0 0 0 0 0 0 0 0 0 0 0 0 0 0 0 0 0 0
0 0 0 0 -0 0 -0 0 -0 0 0 0 0 0 0 1 0 0 0 0 0 0 0 0 0 0 0 0 0 0 0 0 0 0 0 0 0 0 0 0 0 0 0 0 0 0 0
0 0 0 -0 -0 -0 -0 -0 0 0 0 0 0 0 0 0 0 0 1 1 0 0 0 0 0 0 0 0 0 0 0 0 0 0 0 0 0 0 0 0 0 0 0 0 0 0 0
0 0 -0 -0 -0 0 -0 -0 0 0 0 0 0 0 0 0 0 0 1 1 0 0 0 0 0 0 0 0 0 0 0 0 0 0 0 0 0 0 0 0 0 0 0 0 0 0 0
-0 -0 0 -0 -0 -0 0 0 -0 0 0 0 0 0 0 0 0 0 0 0 0 0 0 0 0 0 0 0 0 0 0 0 0 0 0 0 0 0 0 0 0 0 0 0 0 0 0
0 -0 -0 -0 -0 0 0 0 0 0 0 0 0 0 0 0 0 0 0 0 0 0 0 0 0 0 0 0 0 0 0 0 0 0 0 0 0 0 0 0 0 0 0 0 0 0 0
-0 -0 -0 -0 0 0 -0 0 -0 0 0 0 0 0 0 0 0 0 0 0 0 0 0 0 0 0 0 0 0 0 0 0 0 0 0 0 0 0 0 0 0 0 0 0 0 0 0
0 -0 -0 0 0 0 0 0 -0 0 0 0 0 0 0 0 0 0 0 0 0 0 0 0 0 0 0 0 0 0 0 0 0 0 0 0 0 0 0 0 0 0 0 0 0 0 0
-0 0 0 0 0 -0 0 0 0 0 0 0 0 0 0 0 0 0 0 0 0 0 0 0 0 0 0 0 0 0 0 0 0 0 0 0 0 0 0 0 0 0 0 0 0 0 0
-0 -0 0 -0 0 0 0 0 0 0 0 0 0 0 0 0 0 0 0 0 0 0 0 0 0 0 0 0 0 0 0 0 0 0 0 0 0 0 0 0 0 0 0 -0 0 0 0
-0 -0 0 0 0 0 0 0 0 0 0 0 0 0 0 0 0 0 0 0 0 0 0 0 0 0 0 0 0 0 0 0 0 0 0 0 0 0 0 0 0 0 0 -0 -0 0 0
-0 -0 -0 0 0 0 0 0 0 0 0 0 0 0 0 0 0 0 0 0 0 0 0 0 0 0 0 0 0 0 0 0 0 0 0 0 0 0 0 0 0 0 0 0 0 0 0
0 0 0 0 0 0 0 0 0 0 0 0 0 0 0 0 0 0 0 0 0 0 0 0 0 0 0 0 0 0 0 0 0 0 0 0 0 0 0 0 0 0 0 0 0 0 0
-0 0 0 0 0 -0 -0 0 0 0 0 0 0 0 0 0 0 0 0 0 0 0 0 0 0 0 0 0 0 0 0 0 0 0 0 0 0 0 0 0 0 0 0 0 0 0 0
0 0 -0 -0 -0 0 0 0 0 0 0 0 0 0 0 0 0 0 0 0 0 0 0 0 0 0 0 0 0 0 0 0 0 0 0 0 0 0 0 0 0 0 0 0 0 0 0
0 0 -0 0 0 0 0 0 0 0 0 0 0 0 0 0 0 0 0 0 0 0 0 0 0 0 0 0 0 0 0 0 0 0 0 0 0 0 0 0 0 0 0 0 0 0 0
0 0 0 0 0 0 0 0 0 0 0 0 0 0 0 0 0 0 0 0 0 0 0 0 0 0 0 0 0 0 0 0 0 0 0 0 0 0 0 0 0 0 0 0 0 0 0
0 0 0 0 0 0 0 0 0 -0 -0 0 0 0 0 0 0 0 0 0 0 0 0 0 0 0 0 0 0 0 0 0 0 0 0 0 0 0 0 0 0 0 0 0 0 0 0
-0 -0 0 0 0 0 0 0 -0 -0 0 0 0 0 0 0 0 0 0 0 0 0 0 0 0 0 0 0 0 0 0 0 0 0 0 0 0 0 0 0 0 0 0 0 0 0 0
Wind_Speed_500mb
72 72 74 75 72 73 78 82 82 82 79 71 75 76 72 69 67 65 61 61 58 50 63 54 46 40 38 40 52 6 19 39 45 50 34 22 17 20 22 16 31 13 23 34 15 11 14
71 70 75 75 73 77 73 70 69 78 80 78 73 75 73 72 67 68 66 59 61 52 54 60 50 45 38 39 42 40 45 27 33 44 43 24 14 19 23 29 25 19 34 42 24 27 26
67 69 74 70 73 78 74 71 73 69 79 74 79 72 76 72 73 67 67 61 56 58 44 56 52 47 47 64 13 41 45 40 32 35 28 32 24 16 1 15 32 12 19 18 22 24 18
67 67 72 69 74 71 75 78 71 77 76 75 75 78 71 75 72 70 67 65 57 54 48 46 49 43 41 44 23 38 35 44 41 28 43 42 35 18 3 20 9 8 18 24 18 30 33
62 67 70 76 74 73 72 75 78 80 84 81 79 76 75 74 73 71 68 65 57 50 48 37 45 43 28 32 59 50 40 45 47 40 36 38 31 7 4 1 8 13 26 32 29 31 18
66 69 65 64 73 73 74 77 79 80 83 84 86 81 78 72 76 72 69 64 56 45 44 32 42 25 37 38 43 56 43 37 37 40 25 24 14 6 6 7 18 21 30 29 26 20 16
71 77 68 77 68 67 76 73 77 81 78 82 86 89 84 76 71 76 68 64 40 28 58 38 23 45 18 34 40 53 54 51 36 43 21 32 12 29 51 23 18 9 22 22 20 4 5
56 59 62 72 70 62 66 72 77 76 78 79 83 83 91 80 74 77 77 82 83 22 29 66 38 50 32 32 29 50 60 44 35 33 29 11 31 41 17 26 26 22 14 25 27 11 5
65 55 58 63 63 68 66 65 71 75 77 78 80 81 82 84 76 75 90 99 83 26 15 48 60 32 64 34 20 29 73 67 25 37 41 39 32 30 28 29 27 23 30 16 8 23 12
57 53 55 59 61 63 70 67 70 78 80 79 77 77 86 84 76 86 95 93 87 47 10 15 42 30 32 38 23 40 53 29 15 46 47 30 41 32 41 45 32 32 24 16 17 4 4
63 55 60 62 56 73 72 77 73 77 81 81 81 80 86 91 90 87 101 92 85 62 19 36 35 22 34 33 23 36 36 40 27 20 14 19 34 29 34 42 32 12 28 33 20 18 6
65 63 65 64 65 73 73 70 71 84 84 79 80 83 78 89 94 96 82 96 90 21 21 22 37 38 29 44 18 15 22 41 18 27 33 33 18 32 42 32 41 17 9 23 17 13 14
62 64 66 68 72 74 75 76 72 78 84 74 90 83 79 95 102 95 97 102 33 33 21 20 34 40 48 27 30 20 22 21 9 8 22 35 26 10 16 26 18 23 22 8 10 10 18
69 70 69 71 71 69 72 72 70 76 81 73 66 71 76 95 106 86 99 34 44 39 27 20 33 47 48 35 32 21 20 20 10 7 6 16 18 33 21 22 19 41 26 8 13 12 8
83 79 77 75 74 68 65 57 80 80 77 76 61 63 72 102 117 88 76 30 26 52 24 43 41 50 37 37 19 25 21 38 23 18 12 10 13 17 30 13 26 21 20 3 7 7 4
96 93 88 81 76 75 67 64 72 86 81 72 72 61 81 104 114 99 41 33 6 25 36 46 28 37 44 54 31 40 29 29 21 23 21 11 2 6 22 7 3 18 17 9 5 13 9
101 97 91 87 83 80 80 74 65 86 88 72 65 23 47 106 89 58 27 12 10 33 50 31 31 30 35 52 44 35 21 13 33 30 23 15 5 6 2 11 21 9 15 4 5 3 7
83 89 92 89 93 91 87 79 74 96 85 77 38 6 73 88 16 5 17 15 20 29 30 9 23 13 39 48 49 31 28 15 39 44 23 12 6 5 4 5 10 3 8 14 8 11 5
32 61 77 82 89 88 106 92 83 95 95 85 21 12 64 36 10 10 14 10 24 40 22 21 16 12 31 32 20 22 20 8 47 36 35 20 7 6 9 4 15 10 9 10 12 6 9
30 43 65 83 102 91 126 116 96 96 96 71 9 7 15 20 4 20 33 12 21 26 10 11 25 20 39 40 12 25 12 1 6 30 29 35 8 9 5 12 6 9 31 31 27 5 7
24 28 48 74 94 117 131 122 112 100 91 63 4 7 9 8 9 16 29 32 22 12 9 31 15 29 31 12 7 7 18 10 4 18 22 15 10 9 12 7 12 15 13 27 39 36 16
30 34 68 98 108 119 125 127 109 113 102 26 14 12 10 8 20 21 30 33 39 16 11 16 21 32 19 19 13 26 20 12 8 4 10 4 2 3 4 1 2 16 14 13 27 26 19
55 62 91 100 111 128 129 120 118 110 103 14 18 26 18 17 11 6 20 31 29 27 10 23 48 32 21 21 24 28 28 26 18 15 14 13 8 5 5 2 7 4 27 20 10 17 19
70 72 94 104 125 116 124 115 115 109 69 25 31 19 14 7 13 8 33 37 36 15 41 35 45 24 27 73 65 55 51 43 27 8 3 12 12 4 3 7 5 13 6 26 33 34 29
77 99 91 104 112 116 114 113 111 87 40 30 31 17 14 14 9 19 38 33 39 52 18 16 12 48 60 47 14 13 8 10 10 14 17 12 9 4 8 7 9 17 9 10 11 15 16
68 71 75 80 86 90 95 98 92 62 22 25 18 20 27 20 5 44 37 47 36 21 10 25 59 45 16 7 8 8 10 9 8 5 10 11 12 5 4 6 12 8 3 11 9 7 38
55 63 70 71 76 84 87 80 79 59 24 15 31 41 47 23 16 20 10 25 25 28 12 13 12 13 12 5 6 5 3 5 9 15 11 9 5 11 7 5 14 9 3 7 11 6 27
57 50 53 62 67 70 73 81 68 39 10 24 30 39 51 31 33 18 15 20 42 29 19 28 16 6 6 7 7 5 6 9 7 11 11 12 13 7 6 5 11 4 9 5 10 23 33
77 73 44 49 50 51 61 59 57 38 16 28 39 36 70 47 33 45 42 34 28 26 56 23 9 12 13 8 3 7 5 4 9 5 6 6 10 9 14 8 9 40 45 26 21 14 28
Wind_Direction_500mb
249 248 248 251 243 247 242 240 241 240 239 238 240 236 236 235 235 233 234 231 229 234 228 228 225 223 221 219 230 237 214 220 228 225 231 222 227 244 251 247 236 225 271 278 267 273 274
250 253 249 246 245 241 244 240 239 236 238 237 237 237 232 232 233 233 231 233 230 228 227 224 223 221 216 235 231 242 243 235 227 218 220 207 214 238 296 294 261 249 231 254 246 257 264
249 254 254 250 245 239 239 239 239 238 236 236 234 233 233 229 228 231 229 230 229 223 228 221 220 222 223 232 194 235 234 229 235 216 201 206 208 193 179 290 286 247 276 264 245 251 241
249 252 256 254 249 245 242 241 241 239 237 235 235 233 231 229 227 227 228 226 226 226 225 219 218 220 237 240 204 225 208 215 226 215 201 200 208 202 226 309 293 221 248 253 227 222 234
251 251 252 250 247 243 242 243 241 240 239 238 236 234 231 229 225 223 225 226 223 222 219 214 214 212 231 230 222 222 205 206 206 197 188 204 204 188 299 32 269 228 236 228 251 238 219
252 245 247 244 244 243 242 243 240 240 238 238 236 236 232 228 226 223 220 222 220 217 211 214 218 208 228 215 212 214 204 202 175 186 190 198 188 176 101 159 226 242 243 239 254 246 198
246 245 244 237 237 239 241 240 241 238 236 235 235 235 235 228 224 220 214 204 185 204 201 190 197 210 212 219 208 212 198 181 177 165 184 178 180 211 208 198 189 282 327 325 319 12 6
258 250 247 243 244 241 243 239 239 234 234 232 232 232 231 227 221 215 212 198 195 220 194 207 217 218 213 203 197 205 193 184 185 203 178 191 210 215 189 194 200 225 281 286 294 4 7
249 247 241 243 239 237 237 244 237 231 230 229 226 226 223 222 217 215 210 210 196 157 179 206 215 210 211 207 208 211 195 193 199 198 195 207 226 212 179 178 184 201 213 204 248 332 311
259 257 243 244 242 242 239 239 237 232 229 227 225 220 219 215 214 213 211 207 196 188 202 182 201 230 212 205 228 218 221 194 188 201 198 212 219 198 184 188 183 197 189 185 175 168 250
257 249 246 247 245 243 243 243 240 231 228 226 226 221 217 207 209 210 208 196 185 193 218 165 170 191 188 185 152 216 212 219 230 223 184 197 186 179 201 192 183 200 163 199 189 183 209
255 247 247 241 241 233 239 244 237 231 225 226 222 215 213 210 210 213 202 184 181 202 198 168 152 172 170 197 221 129 172 215 211 224 204 216 190 198 206 191 193 169 198 187 205 203 229
249 248 245 243 242 242 245 243 241 219 219 227 220 212 214 205 205 204 196 174 191 206 153 157 168 168 181 178 195 184 181 203 211 187 196 211 217 213 169 196 174 156 149 181 198 208 230
252 247 244 243 241 241 236 244 224 214 213 211 216 214 209 209 202 204 192 190 209 173 155 173 163 171 181 156 195 183 198 193 129 147 130 213 175 189 192 203 182 187 168 180 196 179 212
250 247 243 244 241 236 233 229 214 208 210 210 214 214 216 210 210 202 203 206 183 155 154 151 157 173 185 187 159 181 203 220 180 181 161 196 234 194 183 189 161 172 202 292 96 20 68
257 253 247 239 236 233 227 220 213 210 208 203 197 210 220 204 200 209 193 191 132 179 139 143 154 179 178 183 185 184 173 170 179 176 189 170 318 243 185 117 246 175 141 158 235 153 206
250 247 246 243 231 233 222 222 212 201 200 190 191 206 209 196 195 197 195 148 137 191 148 155 140 169 179 182 191 188 187 187 163 167 158 162 270 263 182 200 183 153 170 177 179 149 171
242 240 240 233 235 229 211 204 200 193 190 186 176 214 177 175 171 131 153 135 153 185 144 153 136 112 175 177 189 185 203 172 155 157 180 143 155 233 19 192 321 183 149 181 210 156 239
229 232 232 226 214 205 199 188 188 187 179 177 187 146 166 162 124 143 111 131 148 169 156 145 138 164 146 167 178 197 177 1 164 165 164 158 176 163 169 307 157 206 198 265 300 63 190
273 252 233 223 211 200 188 185 182 180 179 175 153 122 101 148 100 139 129 140 145 158 88 72 120 134 148 163 53 171 118 104 48 181 156 164 168 171 139 41 91 193 190 205 227 183 176
303 267 220 193 185 183 179 181 183 179 176 166 134 63 116 144 138 132 129 145 131 141 103 126 139 157 134 124 81 154 107 112 97 125 145 157 184 218 258 193 124 298 231 202 207 222 212
58 73 139 157 159 171 174 173 175 168 170 149 125 127 84 143 97 150 143 171 151 120 151 167 143 144 123 149 158 167 129 136 165 207 177 146 230 181 274 294 321 175 229 266 230 243 251
81 108 131 145 150 158 163 163 162 165 167 159 132 134 114 141 127 164 160 160 141 131 77 135 126 110 123 124 134 133 119 117 147 151 180 158 118 102 257 143 71 349 228 227 252 244 233
78 106 121 140 145 152 150 154 160 159 171 171 142 129 98 119 136 215 157 133 135 115 125 125 118 109 132 112 99 80 63 52 61 80 23 144 119 93 163 53 204 239 183 207 227 244 249
85 100 113 121 128 140 147 150 154 156 159 165 157 137 106 120 159 155 133 127 123 107 79 79 57 140 127 103 80 69 20 42 20 13 19 29 144 120 161 190 312 309 246 197 175 260 247
94 105 117 128 137 144 150 154 158 161 149 146 156 145 130 118 31 149 128 132 130 120 64 94 117 139 115 75 83 121 172 150 161 84 15 48 49 111 112 180 216 256 328 215 131 282 28
91 106 121 128 139 147 152 155 161 166 159 130 131 148 138 92 55 108 110 131 131 100 100 104 114 70 65 100 87 125 134 140 154 153 163 140 143 203 185 219 275 246 308 49 127 245 29
84 108 121 132 143 153 162 168 169 183 168 141 110 146 143 100 60 73 104 98 121 131 145 164 95 16 48 82 120 166 120 211 112 165 178 154 155 180 163 191 285 29 104 178 7 28 13
69 96 120 128 148 158 164 174 187 199 218 179 122 109 132 110 108 91 88 97 99 117 133 156 129 133 147 98 96 108 108 126 155 206 213 163 174 182 179 168 75 63 92 77 41 29 8
Wind_Speed_850mb
72 72 74 75 72 73 78 82 82 82 79 71 75 76 72 69 67 65 61 61 58 50 63 54 46 40 38 40 52 6 19 39 45 50 34 22 17 20 22 16 31 13 23 34 15 11 14
71 70 75 75 73 77 73 70 69 78 80 78 73 75 73 72 67 68 66 59 61 52 54 60 50 45 38 39 42 40 45 27 33 44 43 24 14 19 23 29 25 19 34 42 24 27 26
67 69 74 70 73 78 74 71 73 69 79 74 79 72 76 72 73 67 67 61 56 58 44 56 52 47 47 64 13 41 45 40 32 35 28 32 24 16 1 15 32 12 19 18 22 24 18
67 67 72 69 74 71 75 78 71 77 76 75 75 78 71 75 72 70 67 65 57 54 48 46 49 43 41 44 23 38 35 44 41 28 43 42 35 18 3 20 9 8 18 24 18 30 33
62 67 70 76 74 73 72 75 78 80 84 81 79 76 75 74 73 71 68 65 57 50 48 37 45 43 28 32 59 50 40 45 47 40 36 38 31 7 4 1 8 13 26 32 29 31 18
66 69 65 64 73 73 74 77 79 80 83 84 86 81 78 72 76 72 69 64 56 45 44 32 42 25 37 38 43 56 43 37 37 40 25 24 14 6 6 7 18 21 30 29 26 20 16
71 77 68 77 68 67 76 73 77 81 78 82 86 89 84 76 71 76 68 64 40 28 58 38 23 45 18 34 40 53 54 51 36 43 21 32 12 29 51 23 18 9 22 22 20 4 5
56 59 62 72 70 62 66 72 77 76 78 79 83 83 91 80 74 77 77 82 83 22 29 66 38 50 32 32 29 50 60 44 35 33 29 11 31 41 17 26 26 22 14 25 27 11 5
65 55 58 63 63 68 66 65 71 75 77 78 80 81 82 84 76 75 90 99 83 26 15 48 60 32 64 34 20 29 73 67 25 37 41 39 32 30 28 29 27 23 30 16 8 23 12
57 53 55 59 61 63 70 67 70 78 80 79 77 77 86 84 76 86 95 93 87 47 10 15 42 30 32 38 23 40 53 29 15 46 47 30 41 32 41 45 32 32 24 16 17 4 4
63 55 60 62 56 73 72 77 73 77 81 81 81 80 86 91 90 87 101 92 85 62 19 36 35 22 34 33 23 36 36 40 27 20 14 19 34 29 34 42 32 12 28 33 20 18 6
65 63 65 64 65 73 73 70 71 84 84 79 80 83 78 89 94 96 82 96 90 21 21 22 37 38 29 44 18 15 22 41 18 27 33 33 18 32 42 32 41 17 9 23 17 13 14
62 64 66 68 72 74 75 76 72 78 84 74 90 83 79 95 102 95 97 102 33 33 21 20 34 40 48 27 30 20 22 21 9 8 22 35 26 10 16 26 18 23 22 8 10 10 18
69 70 69 71 71 69 72 72 70 76 81 73 66 71 76 95 106 86 99 34 44 39 27 20 33 47 48 35 32 21 20 20 10 7 6 16 18 33 21 22 19 41 26 8 13 12 8
83 79 77 75 74 68 65 57 80 80 77 76 61 63 72 102 117 88 76 30 26 52 24 43 41 50 37 37 19 25 21 38 23 18 12 10 13 17 30 13 26 21 20 3 7 7 4
96 93 88 81 76 75 67 64 72 86 81 72 72 61 81 104 114 99 41 33 6 25 36 46 28 37 44 54 31 40 29 29 21 23 21 11 2 6 22 7 3 18 17 9 5 13 9
101 97 91 87 83 80 80 74 65 86 88 72 65 23 47 106 89 58 27 12 10 33 50 31 31 30 35 52 44 35 21 13 33 30 23 15 5 6 2 11 21 9 15 4 5 3 7
83 89 92 89 93 91 87 79 74 96 85 77 38 6 73 88 16 5 17 15 20 29 30 9 23 13 39 48 49 31 28 15 39 44 23 12 6 5 4 5 10 3 8 14 8 11 5
32 61 77 82 89 88 106 92 83 95 95 85 21 12 64 36 10 10 14 10 24 40 22 21 16 12 31 32 20 22 20 8 47 36 35 20 7 6 9 4 15 10 9 10 12 6 9
30 43 65 83 102 91 126 116 96 96 96 71 9 7 15 20 4 20 33 12 21 26 10 11 25 20 39 40 12 25 12 1 6 30 29 35 8 9 5 12 6 9 31 31 27 5 7
24 28 48 74 94 117 131 122 112 100 91 63 4 7 9 8 9 16 29 32 22 12 9 31 15 29 31 12 7 7 18 10 4 18 22 15 10 9 12 7 12 15 13 27 39 36 16
30 34 68 98 108 119 125 127 109 113 102 26 14 12 10 8 20 21 30 33 39 16 11 16 21 32 19 19 13 26 20 12 8 4 10 4 2 3 4 1 2 16 14 13 27 26 19
55 62 91 100 111 128 129 120 118 110 103 14 18 26 18 17 11 6 20 31 29 27 10 23 48 32 21 21 24 28 28 26 18 15 14 13 8 5 5 2 7 4 27 20 10 17 19
70 72 94 104 125 116 124 115 115 109 69 25 31 19 14 7 13 8 33 37 36 15 41 35 45 24 27 73 65 55 51 43 27 8 3 12 12 4 3 7 5 13 6 26 33 34 29
77 99 91 104 112 116 114 113 111 87 40 30 31 17 14 14 9 19 38 33 39 52 18 16 12 48 60 47 14 13 8 10 10 14 17 12 9 4 8 7 9 17 9 10 11 15 16
68 71 75 80 86 90 95 98 92 62 22 25 18 20 27 20 5 44 37 47 36 21 10 25 59 45 16 7 8 8 10 9 8 5 10 11 12 5 4 6 12 8 3 11 9 7 38
55 63 70 71 76 84 87 80 79 59 24 15 31 41 47 23 16 20 10 25 25 28 12 13 12 13 12 5 6 5 3 5 9 15 11 9 5 11 7 5 14 9 3 7 11 6 27
57 50 53 62 67 70 73 81 68 39 10 24 30 39 51 31 33 18 15 20 42 29 19 28 16 6 6 7 7 5 6 9 7 11 11 12 13 7 6 5 11 4 9 5 10 23 33
77 73 44 49 50 51 61 59 57 38 16 28 39 36 70 47 33 45 42 34 28 26 56 23 9 12 13 8 3 7 5 4 9 5 6 6 10 9 14 8 9 40 45 26 21 14 28
Wind_Direction_850mb
249 248 248 251 243 247 242 240 241 240 239 238 240 236 236 235 235 233 234 231 229 234 228 228 225 223 221 219 230 237 214 220 228 225 231 222 227 244 251 247 236 225 271 278 267 273 274
250 253 249 246 245 241 244 240 239 236 238 237 237 237 232 232 233 233 231 233 230 228 227 224 223 221 216 235 231 242 243 235 227 218 220 207 214 238 296 294 261 249 231 254 246 257 264
249 254 254 250 245 239 239 239 239 238 236 236 234 233 233 229 228 231 229 230 229 223 228 221 220 222 223 232 194 235 234 229 235 216 201 206 208 193 179 290 286 247 276 264 245 251 241
249 252 256 254 249 245 242 241 241 239 237 235 235 233 231 229 227 227 228 226 226 226 225 219 218 220 237 240 204 225 208 215 226 215 201 200 208 202 226 309 293 221 248 253 227 222 234
251 251 252 250 247 243 242 243 241 240 239 238 236 234 231 229 225 223 225 226 223 222 219 214 214 212 231 230 222 222 205 206 206 197 188 204 204 188 299 32 269 228 236 228 251 238 219
252 245 247 244 244 243 242 243 240 240 238 238 236 236 232 228 226 223 220 222 220 217 211 214 218 208 228 215 212 214 204 202 175 186 190 198 188 176 101 159 226 242 243 239 254 246 198
246 245 244 237 237 239 241 240 241 238 236 235 235 235 235 228 224 220 214 204 185 204 201 190 197 210 212 219 208 212 198 181 177 165 184 178 180 211 208 198 189 282 327 325 319 12 6
258 250 247 243 244 241 243 239 239 234 234 232 232 232 231 227 221 215 212 198 195 220 194 207 217 218 213 203 197 205 193 184 185 203 178 191 210 215 189 194 200 225 281 286 294 4 7
249 247 241 243 239 237 237 244 237 231 230 229 226 226 223 222 217 215 210 210 196 157 179 206 215 210 211 207 208 211 195 193 199 198 195 207 226 212 179 178 184 201 213 204 248 332 311
259 257 243 244 242 242 239 239 237 232 229 227 225 220 219 215 214 213 211 207 196 188 202 182 201 230 212 205 228 218 221 194 188 201 198 212 219 198 184 188 183 197 189 185 175 168 250
257 249 246 247 245 243 243 243 240 231 228 226 226 221 217 207 209 210 208 196 185 193 218 165 170 191 188 185 152 216 212 219 230 223 184 197 186 179 201 192 183 200 163 199 189 183 209
255 247 247 241 241 233 239 244 237 231 225 226 222 215 213 210 210 213 202 184 181 202 198 168 152 172 170 197 221 129 172 215 211 224 204 216 190 198 206 191 193 169 198 187 205 203 229
249 248 245 243 242 242 245 243 241 219 219 227 220 212 214 205 205 204 196 174 191 206 153 157 168 168 181 178 195 184 181 203 211 187 196 211 217 213 169 196 174 156 149 181 198 208 230
252 247 244 243 241 241 236 244 224 214 213 211 216 214 209 209 202 204 192 190 209 173 155 173 163 171 181 156 195 183 198 193 129 147 130 213 175 189 192 203 182 187 168 180 196 179 212
250 247 243 244 241 236 233 229 214 208 210 210 214 214 216 210 210 202 203 206 183 155 154 151 157 173 185 187 159 181 203 220 180 181 161 196 234 194 183 189 161 172 202 292 96 20 68
257 253 247 239 236 233 227 220 213 210 208 203 197 210 220 204 200 209 193 191 132 179 139 143 154 179 178 183 185 184 173 170 179 176 189 170 318 243 185 117 246 175 141 158 235 153 206
250 247 246 243 231 233 222 222 212 201 200 190 191 206 209 196 195 197 195 148 137 191 148 155 140 169 179 182 191 188 187 187 163 167 158 162 270 263 182 200 183 153 170 177 179 149 171
242 240 240 233 235 229 211 204 200 193 190 186 176 214 177 175 171 131 153 135 153 185 144 153 136 112 175 177 189 185 203 172 155 157 180 143 155 233 19 192 321 183 149 181 210 156 239
229 232 232 226 214 205 199 188 188 187 179 177 187 146 166 162 124 143 111 131 148 169 156 145 138 164 146 167 178 197 177 1 164 165 164 158 176 163 169 307 157 206 198 265 300 63 190
273 252 233 223 211 200 188 185 182 180 179 175 153 122 101 148 100 139 129 140 145 158 88 72 120 134 148 163 53 171 118 104 48 181 156 164 168 171 139 41 91 193 190 205 227 183 176
303 267 220 193 185 183 179 181 183 179 176 166 134 63 116 144 138 132 129 145 131 141 103 126 139 157 134 124 81 154 107 112 97 125 145 157 184 218 258 193 124 298 231 202 207 222 212
58 73 139 157 159 171 174 173 175 168 170 149 125 127 84 143 97 150 143 171 151 120 151 167 143 144 123 149 158 167 129 136 165 207 177 146 230 181 274 294 321 175 229 266 230 243 251
81 108 131 145 150 158 163 163 162 165 167 159 132 134 114 141 127 164 160 160 141 131 77 135 126 110 123 124 134 133 119 117 147 151 180 158 118 102 257 143 71 349 228 227 252 244 233
78 106 121 140 145 152 150 154 160 159 171 171 142 129 98 119 136 215 157 133 135 115 125 125 118 109 132 112 99 80 63 52 61 80 23 144 119 93 163 53 204 239 183 207 227 244 249
85 100 113 121 128 140 147 150 154 156 159 165 157 137 106 120 159 155 133 127 123 107 79 79 57 140 127 103 80 69 20 42 20 13 19 29 144 120 161 190 312 309 246 197 175 260 247
94 105 117 128 137 144 150 154 158 161 149 146 156 145 130 118 31 149 128 132 130 120 64 94 117 139 115 75 83 121 172 150 161 84 15 48 49 111 112 180 216 256 328 215 131 282 28
91 106 121 128 139 147 152 155 161 166 159 130 131 148 138 92 55 108 110 131 131 100 100 104 114 70 65 100 87 125 134 140 154 153 163 140 143 203 185 219 275 246 308 49 127 245 29
84 108 121 132 143 153 162 168 169 183 168 141 110 146 143 100 60 73 104 98 121 131 145 164 95 16 48 82 120 166 120 211 112 165 178 154 155 180 163 191 285 29 104 178 7 28 13
69 96 120 128 148 158 164 174 187 199 218 179 122 109 132 110 108 91 88 97 99 117 133 156 129 133 147 98 96 108 108 126 155 206 213 163 174 182 179 168 75 63 92 77 41 29 8